Regional Weather Roundup
Issued by NWS

Home | Current Version | Previous Version | Text Only | Print | Product List | Glossary On
Versions: 1 2 3 4 5 6 7 8 9 10 11 12 13 14 15 16 17 18 19 20 21 22 23 24 25 26 27 28 29 30 31 32 33 34 35 36 37 38 39 40 41 42 43 44 45 46 47 48 49 50
000
ASUS43 KLMK 010010
RWRKY
KENTUCKY REGIONAL WEATHER ROUNDUP
NATIONAL WEATHER SERVICE LOUISVILLE KY
800 PM EDT TUE MAY 31 2016

NOTE "FAIR" INDICATES FEW OR NO CLOUDS BELOW 12,000 FEET
WITH NO SIGNIFICANT WEATHER AND/OR OBSTRUCTIONS TO VISIBILITY.

KYZ001>023-026-027-061>063-070>075-010100-
WESTERN AND SOUTH CENTRAL KENTUCKY

CITY           SKY/WX    TMP DP  RH WIND       PRES   REMARKS
PADUCAH        SUNNY     83  65  54 E5        29.87S
HENDERSON      SUNNY     82  59  44 SE3       29.88R
OWENSBORO      MOSUNNY   83  61  47 SE8       29.91R
HOPKINSVILLE   SUNNY     84  63  47 S5        29.89R
BOWLING GREEN  CLEAR     83  63  50 E5        29.91S
GLASGOW        CLEAR     81  61  50 E6        29.92F
$$

KYZ024-025-028>034-038-045-046-053-010100-
NORTH CENTRAL KENTUCKY

CITY           SKY/WX    TMP DP  RH WIND       PRES   REMARKS
LOUISVILLE/SDF PTCLDY    84  56  38 SE7       29.92S
LOUISVILLE/LOU CLEAR     84  58  40 SE7       29.93R
FORT KNOX      CLEAR     82  61  48 E6        29.92R
$$

KYZ035>037-039>044-047>052-055>060-089>105-010100-
NORTHEAST KENTUCKY

CITY           SKY/WX    TMP DP  RH WIND       PRES   REMARKS
LEXINGTON      PTCLDY    80  59  48 NE6       29.96S
COVINGTON      MOCLDY    80  64  58 S7        29.96R
FRANKFORT      PTCLDY    83  56  39 E6        29.94S
$$

KYZ054-064>069-076>088-106>120-010100-
SOUTHEAST KENTUCKY

CITY           SKY/WX    TMP DP  RH WIND       PRES   REMARKS
JACKSON        CLEAR     76  59  55 CALM      29.98R
LONDON         PTCLDY    78  62  57 NE5       29.96R
SOMERSET       PTCLDY    79  63  57 NE7       29.96R
MIDDLESBORO    CLEAR     79  63  57 CALM      29.95S
MONTICELLO     CLEAR     81  65  58 N14       29.96S
$$




USA.gov is the U.S. government's official web portal to all federal, state and local government web resources and services.